Regional Weather Roundup
Issued by NWS

Home | Current Version | Previous Version | Graphics & Text | Print | Product List | Glossary On
Versions: 1 2 3 4 5 6 7 8 9 10 11 12 13 14 15 16 17 18 19 20 21 22 23 24 25 26 27 28 29 30 31 32 33 34 35 36 37 38 39 40 41 42 43 44 45 46 47 48 49 50
000
ASUS43 KDMX 011107
RWRIA

WEATHER ROUNDUP FOR IOWA
NATIONAL WEATHER SERVICE DES MOINES IA
600 AM CDT TUE SEP 01 2015

NOTE: "FAIR" INDICATES FEW OR NO CLOUDS BELOW 12,000 FEET WITH NO
SIGNIFICANT WEATHER AND/OR OBSTRUCTIONS TO VISIBILITY.

* - THESE STATIONS ARE NOT NWS STATIONS...THUS NOT UNDER NWS
QUALITY CONTROL.  THEY ALSO DO NOT REPORT WEATHER SUCH
AS PRECIPITATION OR FOG.

IAZ001>003-012>014-020>022-031>034-043>046-011200-
   NORTHWEST IOWA

CITY           SKY/WX    TMP DP  RH WIND       PRES   REMARKS
CARROLL *      PTCLDY    68  68 100 S9        29.93S
CHEROKEE *     CLEAR     63  63 100 CALM      29.91S FOG
DENISON *      CLEAR     70  68  94 S6        29.92R
LE MARS *      CLEAR     64  64 100 CALM      29.90R FOG
ORANGE CITY *  CLEAR     68  66  94 CALM      29.90S
SHELDON *      PTCLDY    64  64 100 SE6       29.89F FOG
SIOUX CITY     CLEAR     66  63  90 SE9       29.89S FOG
SPENCER        CLEAR     63  60  90 E3        29.92S FOG
STORM LAKE *   CLEAR     66  66 100 S7        29.94R FOG
$$

IAZ055>058-069>071-079>083-090>094-011200-
   SOUTHWEST IOWA

CITY           SKY/WX    TMP DP  RH WIND       PRES   REMARKS
ATLANTIC *     CLEAR     68  68 100 S7        29.96R
AUDUBON *      CLEAR     66  63  88 S3        29.97R FOG
CLARINDA *     CLEAR     66  66 100 CALM      29.99R
COUNCIL BLFS *   N/A     70  66  88 S8        29.94S
CRESTON *      CLEAR     68  66  94 S10       30.00S
LAMONI         CLEAR     70  67  90 S8        30.00R
RED OAK *        N/A    N/A N/A N/A CALM      29.96R
SHENANDOAH *   PTCLDY    68  66  94 S3        29.96S
$$

IAZ047>049-059>061-072>074-084-011200-
   CENTRAL IOWA

CITY           SKY/WX    TMP DP  RH WIND       PRES   REMARKS
AMES           FOG       63  62  97 SE3       29.95S VSB 1/4
ANKENY *       CLEAR     68  68 100 SE5       29.96S FOG
CHARITON *     CLEAR     70  68  94 S7        30.00R
DES MOINES     CLEAR     70  66  87 S8        29.96S
GRINNELL*      CLEAR     68  66  94 S7        29.99S
KNOXVILLE *    CLEAR     72  68  88 S9        29.97S
MARSHALLTOWN   CLEAR     70  67  90 S6        29.97R
PELLA *        CLEAR     71  70  99 S7        29.99S
PERRY *          N/A     66  66 100 S6        29.95R FOG
$$

IAZ004>006-015-016-023>025-035-036-011200-
   NORTH CENTRAL IOWA

CITY           SKY/WX    TMP DP  RH WIND       PRES   REMARKS
ALGONA *       CLEAR     68  66  94 S7        29.94R FOG
CLARION *      FOG       68  66  94 S7        29.95S VSB 1
ESTHERVILLE    CLEAR     61  61 100 S7        29.92S FOG
FORT DODGE *   CLEAR     68  64  88 SE3       29.95S
MASON CITY     FOG       63  63 100 S5        29.97S VSB 1/4
FOREST CITY *    N/A     63  63 100 SE5       29.95S FOG
IOWA FALLS *     N/A     66  66 100 SE6       29.97S
$$

IAZ007>011-017>019-026>030-037>042-050>054-066-011200-
   NORTHEAST IOWA

CITY           SKY/WX    TMP DP  RH WIND       PRES   REMARKS
CEDAR RAPIDS   CLEAR     67  67 100 S6        29.99R
CHARLES CITY * PTCLDY    68  68 100 S5        29.97S FOG
CLINTON *      CLEAR     70  66  88 S6        30.04R
DECORAH *      MOCLDY    70  70 100 S5        29.97S FOG
DUBUQUE        CLEAR     68  67  96 S3        30.02R FOG
MONTICELLO *   CLEAR     68  68 100 CALM      30.00R FOG
OELWEIN *        N/A     68  68 100 SE6       29.99S FOG
WATERLOO       PTCLDY    69  67  93 SE5       29.96S
$$

IAZ064-065-067-068-078-011200-
   EAST CENTRAL IOWA

CITY           SKY/WX    TMP DP  RH WIND       PRES   REMARKS
DAVENPORT      PTCLDY    72  70  93 S6        30.02R FOG
IOWA CITY      PTCLDY    67  65  93 CALM      30.01S FOG
MT. PLEASANT * CLEAR     72  68  88 S6        30.02R
MUSCATINE *    PTCLDY    72  70  94 CALM      30.02R
QUAD CITIES    PTCLDY    73  69  87 CALM      30.02R
$$

IAZ062-063-075>077-085>089-095>099-011200-
   SOUTHEAST IOWA

CITY           SKY/WX    TMP DP  RH WIND       PRES   REMARKS
BURLINGTON     CLEAR     72  71  97 S7        30.03R FOG
FAIRFIELD *    CLEAR     70  66  88 S6        30.01S
FORT MADISON * CLEAR     72  72 100 S7        30.04R
KEOKUK *       CLEAR     73  70  88 SW7       30.02S
OSKALOOSA *      N/A     68  66  94 S5        30.00S
CENTERVILLE *  CLEAR     68  66  94 S5        30.03S
OTTUMWA        CLEAR     70  68  93 S9        29.99R
WASHINGTON *     N/A    N/A N/A N/A MISG        N/A
$$

ABBREVIATIONS USED IN REMARKS
   TC - TEMPERATURES IN CELSIUS
  WCI - WIND CHILL INDEX
   HX - HEAT INDEX
  VSB - VISIBILITY
$$




USA.gov is the U.S. government's official web portal to all federal, state and local government web resources and services.